EW9945 Weather Reports


Display with metric or nautical units.
time (UTC)temp
F
wind
direction
speed
MPH
gust
MPH
rain 1hr
in
rain 24hr
in
rain mn
in
humidity
%
barometer
mb
20260831200108 71 109 2.0 9.0 0.00 0.01 0.01 86 1017.5
20260831194611 70 118 1.0 10.0 0.00 0.01 0.01 87 1017.5
20260831193054 70 125 0.0 11.0 0.00 0.01 0.01 87 1017.7
20260831190104 69 197 2.0 7.0 0.00 0.01 0.01 88 1017.9
20260831184550 69 153 1.0 7.0 0.00 0.01 0.01 88 1017.9
20260831183045 68 118 0.0 9.0 0.00 0.01 0.01 89 1018.1
20260831180054 68 172 0.0 5.0 0.00 0.01 0.01 91 1018.4
20260831174541 67 123 0.0 5.0 0.00 0.01 0.01 92 1018.5
20260831173038 66 127 0.0 6.0 0.00 0.01 0.01 92 1018.7
20260831170034 66 133 0.0 2.0 0.00 0.01 0.01 92 1019.2
20260831164537 66 133 0.0 5.0 0.00 0.01 0.01 92 1019.2
20260831163033 65 138 0.0 1.0 0.00 0.01 0.01 92 1019.4
20260831160032 65 138 0.0 3.0 0.00 0.01 0.01 92 1019.5
20260831154529 65 138 0.0 3.0 0.00 0.01 0.01 92 1019.5
20260831153029 65 122 0.0 4.0 0.01 0.01 0.01 91 1019.5
20260831150030 66 118 0.0 2.0 0.01 0.01 0.01 91 1019.3
20260831144527 66 118 0.0 5.0 0.01 0.01 0.01 91 1019.3
20260831143027 66 111 0.0 3.0 0.00 0.00 0.00 91 1019.4
20260831140027 66 57 0.0 0.0 0.00 0.00 0.00 93 1019.1
20260831134522 65 57 2.0 5.0 0.00 0.00 0.00 93 1019.0
20260831133024 64 301 0.0 0.0 0.00 0.00 0.00 93 1019.1
20260831130016 64 301 0.0 0.0 0.00 0.00 0.00 93 1019.5
20260831124518 64 301 0.0 0.0 0.00 0.00 0.00 93 1019.5
20260831123015 63 301 0.0 0.0 0.00 0.00 0.00 93 1019.5
20260831120015 63 301 0.0 0.0 0.00 0.00 0.00 93 1019.6
20260831114514 63 300 0.0 0.0 0.00 0.00 0.00 93 1019.4
20260831113013 63 300 0.0 0.0 0.00 0.00 0.00 93 1019.4
20260831110011 63 300 0.0 0.0 0.00 0.00 0.00 93 1019.3
20260831104517 63 300 0.0 0.0 0.00 0.00 0.00 93 1019.2
20260831103009 63 300 0.0 0.0 0.00 0.00 0.00 93 1019.3
20260831100007 63 300 0.0 0.0 0.00 0.00 0.00 93 1018.9
20260831094506 63 300 0.0 0.0 0.00 0.00 0.00 93 1018.9
20260831093006 63 300 0.0 0.0 0.00 0.00 0.00 93 1018.9
20260831090003 63 300 0.0 1.0 0.00 0.00 0.00 93 1019.1
20260831084502 63 300 0.0 0.0 0.00 0.00 0.00 93 1019.0
20260831083002 63 300 0.0 0.0 0.00 0.00 0.00 93 1019.0
20260831080001 63 300 0.0 0.0 0.00 0.00 0.00 92 1019.0
20260831074501 63 300 0.0 0.0 0.00 0.00 0.00 92 1019.2
20260831073115 63 300 0.0 0.0 0.00 0.00 0.00 92 1019.3
20260831071701 63 300 0.0 0.0 0.00 0.00 0.00 92 1019.3
20260831070100 63 300 0.0 0.0 0.00 0.00 0.00 92 1019.3
20260831064603 63 300 0.0 0.0 0.00 0.00 0.00 92 1019.2
20260831063101 63 300 0.0 0.0 0.00 0.00 0.00 92 1019.3
20260831061700 63 300 0.0 0.0 0.00 0.00 0.00 92 1019.3
20260831060100 63 300 0.0 0.0 0.00 0.00 0.00 92 1019.4
20260831054558 63 300 0.0 0.0 0.00 0.00 0.00 92 1019.7
20260831053058 63 300 0.0 0.0 0.00 0.00 0.00 92 1019.7
20260831051658 63 300 0.0 0.0 0.00 0.00 0.00 92 1019.9
20260831050058 63 300 0.0 0.0 0.00 0.00 0.00 91 1019.9
20260831044603 63 300 0.0 0.0 0.00 0.00 0.00 91 1020.0
20260831043057 64 300 0.0 0.0 0.00 0.00 0.00 91 1020.0
20260831041658 64 300 0.0 0.0 0.00 0.00 0.00 91 1019.9
20260831040056 63 300 0.0 0.0 0.00 0.00 0.00 91 1019.7
20260831034604 64 300 0.0 0.0 0.00 0.00 0.00 91 1019.9
20260831033056 64 300 0.0 0.0 0.00 0.00 0.00 90 1020.0
20260831031657 64 300 0.0 0.0 0.00 0.00 0.00 91 1020.0
20260831030100 64 300 0.0 0.0 0.00 0.00 0.00 90 1020.0
20260831024555 65 300 0.0 0.0 0.00 0.00 0.00 89 1020.0
20260831023054 65 300 0.0 0.0 0.00 0.00 0.00 89 1020.1
20260831021656 65 300 0.0 0.0 0.00 0.00 0.00 88 1019.9
20260831014555 65 300 0.0 0.0 0.00 0.00 0.00 87 1019.9
20260831013100 65 300 0.0 0.0 0.00 0.00 0.00 88 1019.8
20260831011654 66 300 0.0 0.0 0.00 0.00 0.00 88 1019.8
20260831010114 66 300 0.0 4.0 0.00 0.00 0.00 88 1019.5
20260831004558 67 300 0.0 1.0 0.00 0.00 0.00 89 1019.7
20260831003103 68 300 0.0 0.0 0.00 0.00 0.00 88 1019.4
20260831001652 68 300 0.0 0.0 0.00 0.00 0.00 87 1019.0
20260831000052 68 300 0.0 0.0 0.00 0.00 0.00 86 1018.7
20260830234551 68 300 0.0 0.0 0.00 0.00 0.00 86 1018.5
20260830233051 68 300 0.0 0.0 0.00 0.00 0.00 86 1018.7
20260830231652 69 300 0.0 0.0 0.00 0.00 0.00 86 1018.5
20260830230049 69 300 0.0 0.0 0.00 0.00 0.00 85 1018.5
20260830224552 69 300 0.0 0.0 0.00 0.00 0.00 87 1018.7
20260830223048 69 300 0.0 0.0 0.00 0.00 0.00 87 1018.7
20260830221650 69 300 0.0 0.0 0.00 0.00 0.00 88 1018.8
20260830220048 69 300 0.0 0.0 0.00 0.00 0.00 88 1018.6
20260830214547 69 300 0.0 0.0 0.00 0.00 0.00 87 1018.7
20260830213047 70 300 0.0 2.0 0.00 0.00 0.00 86 1018.8
20260830211648 70 300 0.0 0.0 0.00 0.00 0.00 84 1018.7
20260830210048 71 300 0.0 0.0 0.00 0.00 0.00 81 1018.6
20260830204547 73 300 0.0 0.0 0.00 0.00 0.00 77 1018.6
20260830203047 73 300 0.0 0.0 0.00 0.00 0.00 75 1018.5
20260830201649 73 300 0.0 0.0 0.00 0.00 0.00 74 1018.5